Weather History for West Yellowstone, MT

Change the Weather History Date:

Tuesday, November 13, 2012

  Actual Average Record
Temperature  
Mean Temperature 24 °F -  
Max Temperature 28 °F 36 °F 39 °F (2013)
Min Temperature 21 °F 15 °F -22 °F (2014)
Degree Days  
Heating Degree Days 40    
Moisture  
Dew Point -    
Average Humidity    
Maximum Humidity    
Minimum Humidity    
Precipitation  
Precipitation 0.00 in - - ()
Sea Level Pressure  
Sea Level Pressure 30.26 in    
Wind  
Wind Speed 8 mph (SSW)    
Max Wind Speed 17 mph    
Max Gust Speed 24 mph    
Visibility 9 miles    
Events Rain , Snow    
Averages and records for this station are not official NWS values.
T = Trace of Precipitation, MM = Missing Value Source: NWS Daily Summary

Daily Weather History Graph

Daily Weather History Graph

Search for Another Location

Airport:

Trip Planner

Search our weather history database for the weather conditions in past years. The results will help you decide how hot, cold, wet, or windy it might be!

Date:

Astronomy

Nov. 13, 2012 Rise Set
Actual Time 7:19 AM MST 4:57 PM MST
Civil Twilight 6:47 AM MST 5:29 PM MST
Nautical Twilight 6:12 AM MST 6:04 PM MST
Astronomical Twilight 5:38 AM MST 6:38 PM MST
Moon 7:02 AM MST (11/13) 4:52 PM MST (11/13)
Length of Visible Light 10h 41m
Length of Day
9h 38m
Waning Crescent, 0% of the Moon is Illuminated
Nov 13
Waning Crescent
Nov 13
New
Nov 20
First Quarter
Nov 28
Full
Dec 6
Last Quarter

Hourly Weather History & Observations

Time (MST) Temp. Windchill Dew Point Humidity Pressure Visibility Wind Dir Wind Speed Gust Speed Precip Events Conditions
12:10 AM 21.2 °F 11.7 °F - N/A% 30.29 in 10.0 mi SSW 8.1 mph - N/A   Overcast
12:30 AM 21.2 °F 11.7 °F - N/A% 30.28 in 10.0 mi South 8.1 mph - N/A   Overcast
12:50 AM 21.2 °F 11.7 °F - N/A% 30.27 in 10.0 mi South 8.1 mph - N/A   Overcast
1:10 AM 21.2 °F 13.6 °F - N/A% 30.28 in 10.0 mi SSW 5.8 mph - N/A   Overcast
1:30 AM 23.0 °F 14.7 °F - N/A% 30.28 in 10.0 mi SSW 6.9 mph - N/A   Overcast
1:50 AM 23.0 °F 13.1 °F - N/A% 30.28 in 10.0 mi South 9.2 mph - N/A   Overcast
2:10 AM 23.0 °F 14.7 °F - N/A% 30.28 in 10.0 mi SW 6.9 mph - N/A   Overcast
2:30 AM 23.0 °F 13.1 °F - N/A% 30.29 in 10.0 mi SW 9.2 mph - N/A   Overcast
2:50 AM 23.0 °F 15.8 °F - N/A% 30.29 in 10.0 mi SSW 5.8 mph - N/A Snow Light Snow
3:10 AM 23.0 °F 18.4 °F - N/A% 30.29 in 6.0 mi SSW 3.5 mph - N/A   Haze
3:30 AM 23.0 °F 17.0 °F - N/A% 30.29 in 7.0 mi SW 4.6 mph - N/A Snow Light Snow
3:50 AM 23.0 °F 15.8 °F - N/A% 30.29 in 3.0 mi SSW 5.8 mph - N/A Snow Light Snow
4:10 AM 23.0 °F 15.8 °F - N/A% 30.29 in 2.0 mi SSW 5.8 mph - N/A Snow Light Snow
5:10 AM 23.0 °F 17.0 °F - N/A% 30.30 in 10.0 mi SSW 4.6 mph - N/A Snow Light Snow
5:30 AM 23.0 °F 14.7 °F - N/A% 30.30 in 10.0 mi SSW 6.9 mph - N/A   Overcast
5:50 AM 23.0 °F 13.9 °F - N/A% 30.30 in 10.0 mi SSW 8.1 mph - N/A   Overcast
6:10 AM 23.0 °F 11.7 °F - N/A% 30.29 in 10.0 mi SSW 11.5 mph - N/A   Overcast
6:30 AM 23.0 °F 12.4 °F - N/A% 30.29 in 10.0 mi SW 10.4 mph - N/A   Overcast
6:50 AM 23.0 °F 15.8 °F - N/A% 30.29 in 10.0 mi SW 5.8 mph - N/A   Overcast
7:10 AM 23.0 °F 17.0 °F - N/A% 30.30 in 10.0 mi SW 4.6 mph - N/A   Overcast
7:30 AM 23.0 °F 17.0 °F - N/A% 30.30 in 10.0 mi SSW 4.6 mph - N/A   Overcast
7:50 AM 23.0 °F 13.9 °F - N/A% 30.30 in 10.0 mi South 8.1 mph - N/A   Overcast
8:10 AM 23.0 °F 14.7 °F - N/A% 30.30 in 10.0 mi SSW 6.9 mph - N/A   Overcast
8:30 AM 23.0 °F 14.7 °F - N/A% 30.30 in 10.0 mi South 6.9 mph - N/A   Overcast
8:50 AM 23.0 °F 13.9 °F - N/A% 30.30 in 10.0 mi SSW 8.1 mph - N/A   Overcast
9:10 AM 23.0 °F 12.4 °F - N/A% 30.30 in 9.0 mi SSW 10.4 mph - N/A   Overcast
9:30 AM 23.0 °F 10.1 °F - N/A% 30.30 in 10.0 mi SSW 15.0 mph - N/A   Mostly Cloudy
9:50 AM 23.0 °F 11.1 °F - N/A% 30.30 in 4.0 mi SSW 12.7 mph - N/A   Mostly Cloudy
10:10 AM 24.8 °F 14.0 °F - N/A% 30.30 in 7.0 mi SSW 11.5 mph 17.3 mph N/A   Mostly Cloudy
10:30 AM 24.8 °F 12.4 °F - N/A% 30.31 in 10.0 mi SW 15.0 mph 20.7 mph N/A   Overcast
10:50 AM 24.8 °F 12.4 °F - N/A% 30.31 in 10.0 mi SW 15.0 mph 20.7 mph N/A   Overcast
11:10 AM 24.8 °F 12.9 °F - N/A% 30.31 in 10.0 mi SSW 13.8 mph - N/A   Overcast
11:50 AM 26.6 °F 16.8 °F - N/A% 30.29 in 10.0 mi South 10.4 mph 23.0 mph N/A   Overcast
12:10 PM 26.6 °F 16.2 °F - N/A% 30.29 in 10.0 mi SSW 11.5 mph 17.3 mph N/A   Overcast
12:30 PM 26.6 °F 16.8 °F - N/A% 30.28 in 10.0 mi SW 10.4 mph 19.6 mph N/A   Overcast
12:50 PM 26.6 °F 13.8 °F - N/A% 30.28 in 10.0 mi SW 17.3 mph 21.9 mph N/A   Overcast
1:10 PM 26.6 °F 14.7 °F - N/A% 30.27 in 10.0 mi SSW 15.0 mph 18.4 mph N/A   Overcast
1:30 PM 26.6 °F 16.8 °F - N/A% 30.27 in 10.0 mi SSW 10.4 mph 24.2 mph N/A   Overcast
1:50 PM 26.6 °F 16.2 °F - N/A% 30.27 in 10.0 mi SSW 11.5 mph 18.4 mph N/A   Overcast
2:10 PM 26.6 °F 16.2 °F - N/A% 30.27 in 10.0 mi SSW 11.5 mph - N/A   Overcast
2:30 PM 26.6 °F 16.2 °F - N/A% 30.26 in 10.0 mi SW 11.5 mph 18.4 mph N/A   Overcast
2:50 PM 26.6 °F 17.5 °F - N/A% 30.26 in 10.0 mi SW 9.2 mph 17.3 mph N/A   Overcast
3:10 PM 26.6 °F 16.2 °F - N/A% 30.26 in 9.0 mi SW 11.5 mph - N/A   Overcast
3:30 PM 26.6 °F 17.5 °F - N/A% 30.26 in 10.0 mi SW 9.2 mph - N/A   Overcast
3:50 PM 26.6 °F 17.5 °F - N/A% 30.26 in 10.0 mi SW 9.2 mph - N/A   Mostly Cloudy
4:10 PM 26.6 °F 18.2 °F - N/A% 30.26 in 8.0 mi SSW 8.1 mph - N/A   Overcast
4:30 PM 26.6 °F 21.2 °F - N/A% 30.26 in 8.0 mi SSW 4.6 mph - N/A   Overcast
4:50 PM 24.8 °F 20.5 °F - N/A% 30.25 in 6.0 mi South 3.5 mph - N/A   Overcast
5:10 PM 26.6 °F - - N/A% 30.25 in 6.0 mi Calm Calm - N/A Rain Light Freezing Rain
5:30 PM 26.6 °F - - N/A% 30.25 in 4.0 mi Calm Calm - N/A   Overcast
5:50 PM 26.6 °F - - N/A% 30.25 in 2.5 mi Calm Calm - N/A   Scattered Clouds
6:10 PM 26.6 °F - - N/A% 30.24 in 3.0 mi Calm Calm - N/A   Scattered Clouds
6:30 PM 26.6 °F 22.6 °F - N/A% 30.24 in 5.0 mi South 3.5 mph - N/A   Overcast
6:50 PM 26.6 °F 22.6 °F - N/A% 30.24 in 10.0 mi SSW 3.5 mph - N/A   Overcast
7:10 PM 26.6 °F - - N/A% 30.23 in 8.0 mi Calm Calm - N/A   Overcast
7:30 PM 26.6 °F - - N/A% 30.22 in 10.0 mi Calm Calm - N/A   Overcast
7:50 PM 26.6 °F 22.6 °F - N/A% 30.22 in 10.0 mi ESE 3.5 mph - N/A   Overcast
8:10 PM 26.6 °F 18.2 °F - N/A% 30.22 in 10.0 mi SSE 8.1 mph - N/A   Overcast
8:30 PM 26.6 °F 18.2 °F - N/A% 30.22 in 10.0 mi SE 8.1 mph - N/A   Overcast
8:50 PM 26.6 °F 22.6 °F - N/A% 30.22 in 10.0 mi NE 3.5 mph - N/A   Overcast
9:10 PM 26.6 °F - - N/A% 30.22 in 10.0 mi Calm Calm - N/A   Overcast
9:30 PM 26.6 °F - - N/A% 30.21 in 10.0 mi Calm Calm - N/A   Overcast
9:50 PM 26.6 °F 22.6 °F - N/A% 30.21 in 10.0 mi ESE 3.5 mph - N/A   Overcast
10:10 PM 26.6 °F - - N/A% 30.20 in 10.0 mi Calm Calm - N/A   Overcast
10:30 PM 26.6 °F 19.1 °F - N/A% 30.20 in 10.0 mi SSW 6.9 mph - N/A   Overcast
10:50 PM 28.4 °F 19.7 °F - N/A% 30.19 in 8.0 mi South 9.2 mph - N/A   Overcast
11:10 PM 26.6 °F 16.2 °F - N/A% 30.18 in 10.0 mi SSW 11.5 mph 17.3 mph N/A   Overcast
11:30 PM 28.4 °F 18.5 °F - N/A% 30.19 in 10.0 mi SW 11.5 mph - N/A   Overcast
11:50 PM 28.4 °F 19.1 °F - N/A% 30.19 in 7.0 mi SW 10.4 mph - N/A   Overcast